Flag for Mexico Weather past 2 weeks in Mexicali, Baja California, Mexico

Now
100 °F

Clear.


Feels Like: 99 °F
Forecast: 85 / 99 °F
Wind: 7 mph from Southeast

Location: Imperial County Airport

Current Time: Sep 15, 2014 at 10:11:45 PM

Latest Report: Sep 15, 2014 at 8:53 PM


Visibility: 10 mi

Pressure: 29.69 "Hg

Humidity: 24%

Dew point: 57 °F

Location of MexicaliLocation

Historic Weather in Mexicali — Graph

°F

Mexicali temperature yesterday

Maximum temperature yesterday: 107 °F (at 4:53 PM)
Minimum temperature yesterday: 81 °F (at 4:53 AM)
Average temperature yesterday: 95 °F

Past Weeks' High & Low Weather Summary

 TemperatureHumidityPressure
High108 °F (Sep 1, 3:53 PM)82% (Sep 6, 3:53 AM)29.88 "Hg (Sep 6, 3:53 AM)
Low73 °F (Sep 2, 6:53 AM)9% (Sep 2, 12:53 PM)29.50 "Hg (Sep 3, 6:53 PM)
Average92 °F39%29.71 "Hg
* Reported Aug 31 8:53 PM — Sep 15 8:53 PM, Mexicali, Weather by CustomWeather, © 2014

Note: Actual official high and low records may vary slightly from our data, if they occured in-between our weather recording intervals... More about our weather records

Advertising

Mexicali weather history for previous 24 hours

 ConditionsComfort  
Time TempWeatherWind HumidityBarometerVisibility
8:53 PM
Sep 15
100 °FClear.7 mph24%29.69 "Hg10 mi
7:53 PM98 °FClear.3 mph28%29.66 "Hg10 mi
6:53 PM103 °FSunny.6 mph24%29.65 "Hg10 mi
5:53 PM107 °FSunny.6 mph19%29.65 "Hg10 mi
4:53 PM107 °FSunny.5 mph18%29.65 "Hg10 mi
3:53 PM108 °FSunny.9 mph19%29.66 "Hg10 mi
2:53 PM108 °FSunny.7 mph19%29.68 "Hg10 mi
1:53 PM108 °FSunny.7 mph19%29.70 "Hg10 mi
12:53 PM105 °FSunny.3 mph23%29.72 "Hg10 mi
11:53 AM105 °FSunny.6 mph24%29.75 "Hg10 mi
10:53 AM101 °FSunny.5 mph30%29.76 "Hg10 mi
9:53 AM98 °FSunny.3 mph29%29.76 "Hg10 mi
8:53 AM93 °FSunny.3 mph34%29.76 "Hg10 mi
7:53 AM88 °FSunny.3 mph43%29.75 "Hg10 mi
6:53 AM83 °FClear.3 mph53%29.74 "Hg10 mi
5:53 AM85 °FClear.No wind46%29.72 "Hg10 mi
4:53 AM85 °FClear.No wind45%29.70 "Hg10 mi
3:53 AM89 °FClear.5 mph36%29.69 "Hg10 mi
2:53 AM89 °FClear.No wind35%29.69 "Hg10 mi
1:53 AM90 °FClear.No wind37%29.69 "Hg10 mi
12:53 AM89 °FClear.No wind39%29.69 "Hg10 mi
11:53 PM
Sep 14
92 °FClear.3 mph33%29.68 "Hg10 mi
10:53 PM95 °FClear.No wind29%29.67 "Hg10 mi
Weather by CustomWeather, © 2014

See weather overviewHow to use our weather pages